Flag for Germany Weather past 2 weeks in Wedel, Schleswig-Holstein, Germany

Now
54 °F

Sunny.


Feels Like: 52 °F
Forecast: 49 / 60 °F
Wind: 7 mph from Southwest

Location: Hamburg-Finkenwerder

Current Time: Sep 3, 2015 at 9:18:04 AM

Latest Report: Sep 3, 2015 at 8:50 AM


Visibility: 10 mi

Pressure: 29.92 "Hg

Humidity: 88%

Dew point: 50 °F

Location of WedelLocation

Historic Weather in Wedel — Graph

°F

Wedel temperature yesterday

Maximum temperature yesterday: 66 °F (at 2:20 PM)
Minimum temperature yesterday: 52 °F (at 5:50 AM)
Average temperature yesterday: 60 °F

Past Weeks' High & Low Weather Summary

 TemperatureHumidityPressure
High82 °F (Aug 31, 3:50 PM)100% (Aug 19, 8:20 AM)30.27 "Hg (Aug 19, 8:20 AM)
Low48 °F (Sep 3, 6:20 AM)36% (Aug 21, 4:50 PM)29.56 "Hg (Aug 24, 7:50 PM)
Average66 °F78%29.95 "Hg
* Reported Aug 19 8:20 AM — Sep 3 8:20 AM, Wedel, Weather by CustomWeather, © 2015

Note: Actual official high and low records may vary slightly from our data, if they occured in-between our weather recording intervals... More about our weather records

Advertising

Wedel weather history for previous 24 hours

 ConditionsComfort  
Time TempWeatherWind HumidityBarometerVisibility
8:20 AM
Thu, Sep 3
52 °FPassing clouds.7 mph100%29.92 "HgN/A
7:50 AM52 °FSunny.7 mph100%29.92 "Hg10 mi
7:20 AM50 °FClear.6 mph100%29.92 "Hg10 mi
6:50 AM48 °FPassing clouds.5 mph100%29.92 "HgN/A
6:20 AM48 °FClear.7 mph100%29.92 "Hg10 mi
8:20 PM
Wed, Sep 2
61 °FScattered clouds.6 mph72%29.95 "HgN/A
7:50 PM63 °FScattered clouds.7 mph68%29.92 "HgN/A
7:20 PM63 °FScattered clouds.10 mph64%29.92 "HgN/A
6:50 PM64 °FSunny.13 mph60%29.92 "Hg10 mi
6:20 PM64 °FScattered clouds.14 mph60%29.92 "HgN/A
5:50 PM64 °FPassing clouds.12 mph60%29.92 "HgN/A
5:20 PM64 °FSunny.10 mph60%29.92 "Hg10 mi
4:50 PM63 °FSunny.10 mph64%29.92 "Hg10 mi
4:20 PM63 °FPartly sunny.10 mph64%29.92 "HgN/A
3:50 PM64 °FBroken clouds.15 mph56%29.92 "HgN/A
3:20 PM64 °FScattered clouds.16 mph56%29.92 "HgN/A
2:50 PM64 °FSunny.15 mph56%29.92 "Hg10 mi
2:20 PM66 °FScattered clouds.18 mph56%29.92 "HgN/A
1:50 PM64 °FScattered clouds.17 mph60%29.92 "HgN/A
1:20 PM63 °FScattered clouds.18 mph64%29.95 "HgN/A
12:50 PM63 °FScattered clouds.17 mph59%29.95 "HgN/A
12:20 PM63 °FScattered clouds.17 mph64%29.95 "HgN/A
11:50 AM63 °FScattered clouds.17 mph64%29.92 "HgN/A
11:20 AM61 °FScattered clouds.22 mph68%29.92 "HgN/A
10:50 AM61 °FScattered clouds.17 mph72%29.92 "HgN/A
10:20 AM59 °FScattered clouds.18 mph77%29.92 "HgN/A
9:50 AM59 °FPassing clouds.16 mph77%29.92 "HgN/A
9:20 AM57 °FPassing clouds.17 mph82%29.92 "HgN/A
Weather by CustomWeather, © 2015

See weather overviewHow to use our weather pages